Regional Weather Roundup
Issued by NWS Upton, NY

Current Version | Previous Version | Text Only | Print | Product List | Glossary Off
Versions: 1 2 3 4 5 6 7 8 9 10 11 12 13 14 15 16 17 18 19 20 21 22 23 24 25 26 27 28 29 30 31 32 33 34 35 36 37 38 39 40 41 42 43 44 45 46 47 48 49 50
000 ASUS41 KOKX 020705 RWROKX REGIONAL WEATHER ROUNDUP NATIONAL WEATHER SERVICE NEW YORK NY 200 AM EST MON MAR 02 2015 NOTE: "FAIR" INDICATES FEW OR NO CLOUDS BELOW 12,000 FEET WITH NO SIGNIFICANT WEATHER AND/OR OBSTRUCTIONS TO VISIBILITY. NYZ071-072-176-178-NJZ106-104-020800- NEW YORK CITY METRO AREA CITY SKY/WX TMP DP RH WIND PRES REMARKS CENTRAL PARK CLOUDY 29 23 78 VRB3 30.11F LAGUARDIA APRT CLOUDY 30 25 80 CALM 30.09F KENNEDY INTL CLOUDY 30 26 85 SW6 30.11F WCI 24 NEWARK/LIBERTY CLOUDY 27 24 89 W5 30.11S WCI 22 BRNX BOT. GARD N/A N/A N/A N/A W9 30.10S TETERBORO CLOUDY 27 22 81 CALM 30.10F $$ NYZ177-179-078>081-020800- LONG ISLAND NEW YORK CITY SKY/WX TMP DP RH WIND PRES REMARKS FARMINGDALE CLOUDY 28 25 88 NW3 30.09F ISLIP CLOUDY 29 25 85 NW5 30.07F WCI 24 SHIRLEY CLOUDY 30 27 88 W6 30.09F WCI 24 WESTHAMPTON CLOUDY 31 27 85 W3 30.09F MONTAUK POINT N/A 30 27 88 W6 30.07F WCI 24 $$ NYZ052-065-067-020800- HUDSON VALLEY CITY SKY/WX TMP DP RH WIND PRES REMARKS WHITE PLAINS CLOUDY 25 21 85 W3 30.05F NEWBURGH CLOUDY 23 21 93 CALM 30.06F MONTGOMERY CLOUDY 23 21 92 SW5 30.05F WCI 17 POUGHKEEPSIE CLOUDY 25 21 85 S3 30.06F ALBANY FLURRIES 23 19 85 S3 30.07F $$ NJZ001-105-106-008-010-013-015-019>022-104-020800- NEW JERSEY CITY SKY/WX TMP DP RH WIND PRES REMARKS NEWARK/LIBERTY CLOUDY 27 24 89 W5 30.11S WCI 22 TETERBORO CLOUDY 27 22 81 CALM 30.10F CALDWELL CLOUDY 25 20 81 CALM 30.11F MORRISTOWN CLOUDY 28 23 80 CALM 30.10S SOMERVILLE CLOUDY 26 23 88 CALM 30.10F FOG SUSSEX MIX PCPN 24 20 84 SW5 30.07F WCI 18 ANDOVER N/A 23 21 92 CALM 30.07F TRENTON CLOUDY 29 26 89 NW6 30.10F FOG WCI 23 MILLVILLE CLOUDY 32 31 96 W7 30.13F FOG WCI 26 ATLANTIC CITY CLOUDY 33 31 92 SW6 30.11F FOG WCI 28 WRIGHTSTOWN CLOUDY 32 31 99 CALM 30.07F TOMS RIVER CLOUDY 34 30 86 CALM 30.11S BELMAR CLOUDY 32 27 80 CALM 30.09F $$ PAZ047>061-062-071-020800- EASTERN PENNSYLVANIA CITY SKY/WX TMP DP RH WIND PRES REMARKS PHILADELPHIA CLOUDY 32 30 92 SW9 30.13F FOG WCI 24 ALLENTOWN CLOUDY 25 21 85 W3 30.11F FOG SCRANTON LGT SNOW 26 21 81 SW6 30.06S WCI 19 $$ CTZ002-004>006-009-010-012-RIZ004-006-007-MAZ004-011-015-020800- SOUTHERN NEW ENGLAND IN CT CITY SKY/WX TMP DP RH WIND PRES REMARKS BRADLEY INTL CLOUDY 27 23 85 SE3 30.04F HARTFORD CLOUDY 26 24 92 SE3 30.06F DANBURY CLOUDY 24 18 77 W5 30.06F WCI 18 WTRBRY/OXFORD CLOUDY 25 16 68 CALM 30.03F BRIDGEPORT CLOUDY 28 25 88 W8 30.08F WCI 20 MERIDEN CLOUDY 26 23 88 S3 30.06F NEW HAVEN CLOUDY 28 24 85 SW5 30.07F WCI 23 CHESTER CLOUDY 28 27 93 SW5 30.05F WCI 23 GROTON CLOUDY 28 26 92 W6 30.05F WCI 22 WILLIMANTIC CLOUDY 27 24 89 CALM 30.04F IN RI CITY SKY/WX TMP DP RH WIND PRES REMARKS PROVIDENCE CLOUDY 29 25 85 W5 30.04F WCI 24 BLOCK ISLAND CLOUDY 30 27 86 W8 30.04F WCI 23 WESTERLY CLOUDY 29 27 92 SW6 30.04F WCI 23 IN MA CITY SKY/WX TMP DP RH WIND PRES REMARKS BOSTON CLOUDY 29 25 85 W9 30.03F WCI 20 WORCESTER CLOUDY 23 20 88 W10 29.97F WCI 12 WESTFIELD FLURRIES 25 22 88 CALM 30.03F PROVINCETOWN CLOUDY 30 28 93 W8 30.03F WCI 23 NANTUCKET MIX PCPN 34 33 96 SW5 30.03F FOG WCI 30 $$ ANZ330-335-338-340-345-350-353-355-020800- COASTAL MARINE OBSERVATIONS STATION/POSITION TIME SKY/WX TEMP WIND PRES VSBY WAVE AIR SEA DIR/SP/G HT/PER (UTC) (F) (DEG/KT/KT) (MB) (MI) (FT/S) NY HARB ENTRANCE 0700 30 37 CALM / 2 1019.1 1/ 7 4S FIRE IS NOT AVBL 20S FIRE ISLAND 0600 36 1020.6 2/ 7 23SW MTP 0700 N/A 2/ 9 HUDSON CANYON NOT AVBL EXECUTION ROCKS NOT AVBL WESTERN LI SOUND NOT AVBL CENTRAL LI SOUND NOT AVBL EASTERN LI SOUND NOT AVBL ROBBINS REEF 0600 27 310/ 2/ 3 1018.3 $$ >>>>>>>>>>>>>>>>>>>>>>>>>>>> KEY <<<<<<<<<<<<<<<<<<<<<<<<<<< > < > SKY/WX - SKY CONDITION/PRESENT WEATHER < > TMP - TEMPERATURE IN FAHRENHEIT < > DP - DEWPOINT IN FAHRENHEIT < > RH - RELATIVE HUMIDITY IN PERCENT < > WIND - DIRECTION AND SPEED IN MPH < > PRES - MEAN SEA LEVEL PRESSURE IN INCHES OF HG < > WCI - WIND CHILL INDEX < > VSB - VISIBILITY IN MILES < > HX - HEAT INDEX < > TC - TEMPERATURE IN CELSIUS < > VRB - VARIABLE WIND DIRECTION < > < >>>>>>>>>>>>>>>>>>>>>>>>>>>> KEY <<<<<<<<<<<<<<<<<<<<<<<<<<<

USA.gov is the U.S. government's official web portal to all federal, state and local government web resources and services.